Flag for U.S.A. Weather past 2 weeks in Rockford, Illinois, U.S.A.

Now
71 °F

Overcast.


Feels Like: 76 °F
Forecast: 57 / 77 °F
Wind: 3 mph from Southwest

Location: Greater Rockford Airport

Current Time: Jul 24, 2014 at 8:43:37 PM

Latest Report: Jul 24, 2014 at 7:54 PM


Visibility: 10 mi

Pressure: 30.06 "Hg

Humidity: 59%

Dew point: 56 °F

Location of RockfordLocation

Historic Weather in Rockford — Graph

°F

Rockford temperature yesterday

Maximum temperature yesterday: 78 °F (at 2:54 PM)
Minimum temperature yesterday: 60 °F (at 11:54 PM)
Average temperature yesterday: 71 °F

Past Weeks' High & Low Weather Summary

 TemperatureHumidityPressure
High86 °F (Jul 22, 6:54 PM)94% (Jul 13, 5:54 AM)30.21 "Hg (Jul 13, 5:54 AM)
Low52 °F (Jul 16, 5:54 AM)35% (Jul 14, 12:54 PM)29.82 "Hg (Jul 12, 9:54 PM)
Average69 °F68%30.05 "Hg
* Reported Jul 9 6:54 PM — Jul 24 6:54 PM, Rockford, Weather by CustomWeather, © 2014

Note: Actual official high and low records may vary slightly from our data, if they occured in-between our weather recording intervals... More about our weather records

Advertising

Rockford weather history for previous 24 hours

 ConditionsComfort  
Time TempWeatherWind HumidityBarometerVisibility
6:54 PM
Jul 24
73 °FPartly sunny.6 mph51%30.08 "Hg10 mi
5:54 PM74 °FBroken clouds.7 mph48%30.09 "Hg10 mi
4:54 PM77 °FBroken clouds.3 mph44%30.09 "Hg10 mi
3:54 PM75 °FScattered clouds.5 mph43%30.09 "Hg10 mi
2:54 PM76 °FPartly sunny.3 mph42%30.12 "Hg10 mi
1:54 PM75 °FScattered clouds.9 mph42%30.14 "Hg10 mi
12:54 PM75 °FPassing clouds.6 mph42%30.16 "Hg10 mi
11:54 AM75 °FPassing clouds.8 mph40%30.19 "Hg10 mi
10:54 AM72 °FPassing clouds.7 mph44%30.19 "Hg10 mi
9:54 AM70 °FPassing clouds.6 mph46%30.19 "Hg10 mi
8:54 AM67 °FPassing clouds.6 mph55%30.19 "Hg10 mi
7:54 AM63 °FPassing clouds.No wind65%30.20 "Hg10 mi
6:54 AM58 °FPassing clouds.3 mph81%30.20 "Hg10 mi
5:54 AM55 °FPassing clouds.6 mph80%30.20 "Hg10 mi
4:54 AM56 °FPassing clouds.3 mph77%30.20 "Hg10 mi
3:54 AM57 °FClear.5 mph72%30.18 "Hg10 mi
2:54 AM58 °FClear.5 mph70%30.17 "Hg10 mi
1:54 AM59 °FPassing clouds.5 mph69%30.18 "Hg10 mi
12:54 AM60 °FClear.No wind65%30.18 "Hg10 mi
11:54 PM
Jul 23
60 °FClear.3 mph67%30.18 "Hg10 mi
10:54 PM62 °FPassing clouds.No wind70%30.19 "Hg10 mi
9:54 PM63 °FPassing clouds.7 mph68%30.17 "Hg10 mi
8:54 PM67 °FPassing clouds.13 mph66%30.16 "Hg10 mi
Weather by CustomWeather, © 2014

See weather overviewHow to use our weather pages